KUIPER-00063

导读

KUIPER-00063是美国亚马逊“柯伊伯计划”卫星互联网项目的量产卫星,于2025年6月23日发射入轨。该卫星运行于近地轨道,搭载先进相控阵天线与激光星间链路,可灵活分配通信容量,为全球用户提供高速宽带互联网服务,是柯伊伯星座三千余颗组网卫星的组成部分,将和其他卫星共同构建覆盖全球的低轨卫星通信网络,与星链项目形成市场竞争。

基本信息
目录编号:
64523
目录名称:
KUIPER-00063
国际标识:
2025-134Z
轨道中心:
EARTH
卫星名称:
KUIPER-00063
卫星全名:
KUIPER-00063
卫星状态:
在轨 (已飞行455 天)
发射日期:
2025-06-23 UTC
国别 :
美国 (US)
星等 :
--
该卫星已列入 空间交会检测服务 Space Conjunction Data Service (SCDS) ,当前飞行风险评估等级: 无高风险
轨道信息
数据来源 国际轨道数据 AOE轨道数据
星历时间 2026-09-20T13:54:05+0800
23小时前
查看轨道信息
2026-09-19T10:00:00+0800
2天前
查看轨道信息
半长轴 7007.667km 7007.691km
偏心率 0.0000673 0.0000753
轨道倾角 51.902° 51.901°
近地点辐角 111.148° 93.254°
升交点赤经 97.819° 102.961°
平近点角 248.955° 189.265°
近地点 629.058km 629.026km
远地点 630.002km 630.082km
周期 97.302分钟 97.302分钟
每日圈数 14.799348 14.799273
详细信息
使用方式:
暂无
2D轨道图
3D轨道图
轨道高度分析图
轨道倾角分析图
轨道综合分析图
查看轨道综合分析图
与全量物体交会距离演化趋势 订阅飞行安全评估服务
与全量物体交会风险概率演化趋势 订阅飞行安全评估服务